IZ3ZOD-13 Weather Reports


Display with metric or nautical units.
time (UTC)temp
F
wind
direction
speed
MPH
gust
MPH
rain 1hr
in
rain 24hr
in
rain mn
in
humidity
%
barometer
mb
20260505173203 59 355 4.0 8.0 0.00 0.06 0.06 90 1012.9
20260505173017 59 360 4.0 8.0 0.00 0.06 0.06 90 1013.0
20260505172403 59 356 5.0 8.0 0.00 0.06 0.06 90 1013.1
20260505172003 59 359 5.0 9.0 0.00 0.06 0.06 90 1012.9
20260505171603 59 5 6.0 9.0 0.00 0.06 0.06 89 1012.9
20260505171203 59 9 6.0 9.0 0.00 0.06 0.06 90 1012.8
20260505170803 59 12 6.0 10.0 0.00 0.06 0.06 90 1012.8
20260505170403 59 13 6.0 10.0 0.00 0.06 0.06 90 1012.8
20260505170003 59 8 6.0 10.0 0.00 0.06 0.06 90 1012.8
20260505165603 59 11 6.0 11.0 0.00 0.06 0.06 90 1012.7
20260505165203 60 14 6.0 11.0 0.00 0.06 0.06 90 1012.8
20260505164803 60 9 6.0 11.0 0.00 0.06 0.06 90 1012.9
20260505164403 60 9 5.0 10.0 0.00 0.06 0.06 90 1012.6
20260505164003 60 8 5.0 9.0 0.00 0.06 0.06 89 1012.8
20260505163814 60 11 5.0 9.0 0.00 0.06 0.06 89 1012.9
20260505163203 60 7 5.0 9.0 0.00 0.06 0.06 89 1013.0
20260505163012 60 5 5.0 9.0 0.00 0.06 0.06 89 1013.0
20260505162403 60 356 5.0 10.0 0.00 0.06 0.06 89 1013.0
20260505162003 60 358 5.0 10.0 0.00 0.06 0.06 89 1013.0
20260505161603 60 1 5.0 9.0 0.00 0.06 0.06 89 1013.1
20260505161203 60 3 5.0 9.0 0.00 0.06 0.06 89 1013.0
20260505161014 60 2 4.0 9.0 0.00 0.06 0.06 89 1013.1
20260505160614 60 3 5.0 8.0 0.00 0.06 0.06 88 1012.9
20260505153203 62 342 4.0 9.0 0.00 0.06 0.06 85 1013.0
20260505152803 62 340 4.0 8.0 0.00 0.06 0.06 85 1013.1
20260505152403 62 346 3.0 8.0 0.00 0.06 0.06 85 1013.2
20260505152217 62 350 3.0 6.0 0.00 0.06 0.06 84 1013.1
20260505151603 62 355 3.0 8.0 0.00 0.06 0.06 85 1013.0
20260505151203 62 359 3.0 8.0 0.00 0.06 0.06 85 1013.1
20260505151015 62 354 2.0 7.0 0.00 0.06 0.06 85 1012.9
20260505150403 62 4 3.0 7.0 0.00 0.06 0.06 85 1013.1
20260505140403 61 3 4.0 7.0 0.00 0.06 0.06 85 1013.2
20260505124803 61 24 3.0 6.0 0.00 0.06 0.06 84 1014.2
20260505124618 61 32 3.0 6.0 0.00 0.06 0.06 84 1014.0
20260505124003 61 52 2.0 4.0 0.00 0.06 0.06 84 1014.1
20260505123603 61 51 3.0 6.0 0.00 0.06 0.06 84 1014.1
20260505123203 61 39 3.0 6.0 0.00 0.06 0.06 84 1014.1
20260505123015 61 36 3.0 6.0 0.00 0.06 0.06 84 1014.1
20260505122403 61 33 3.0 7.0 0.00 0.06 0.06 84 1014.1
20260505122003 61 28 4.0 7.0 0.00 0.06 0.06 84 1014.1
20260505121603 61 28 4.0 7.0 0.00 0.06 0.06 83 1014.0
20260505121203 61 38 4.0 7.0 0.00 0.06 0.06 83 1014.1
20260505120803 61 47 4.0 7.0 0.00 0.06 0.06 83 1014.2
20260505120616 61 53 4.0 7.0 0.00 0.06 0.06 83 1014.2
20260505120004 61 57 4.0 7.0 0.00 0.06 0.06 81 1014.2
20260505115603 61 48 5.0 8.0 0.00 0.06 0.06 81 1014.1
20260505115203 61 42 5.0 8.0 0.00 0.06 0.06 79 1013.9
20260505114803 61 42 4.0 8.0 0.00 0.06 0.06 79 1014.1
20260505114403 61 48 4.0 6.0 0.00 0.06 0.06 80 1014.2
20260505114003 61 52 5.0 10.0 0.00 0.06 0.06 78 1014.1
20260505113603 61 59 5.0 10.0 0.00 0.06 0.06 77 1014.1
20260505113203 61 60 6.0 10.0 0.00 0.06 0.06 78 1014.0
20260505112803 61 68 6.0 10.0 0.01 0.06 0.06 78 1014.2
20260505112403 62 66 6.0 10.0 0.01 0.06 0.06 77 1014.0
20260505112214 62 62 7.0 14.0 0.01 0.06 0.06 78 1014.1
20260505111603 62 51 7.0 14.0 0.01 0.06 0.06 80 1014.2
20260505111203 62 44 6.0 11.0 0.01 0.06 0.06 79 1014.2
20260505110803 62 35 5.0 8.0 0.01 0.06 0.06 82 1014.0
20260505110403 61 33 4.0 8.0 0.01 0.06 0.06 81 1014.1
20260505102004 61 67 4.0 7.0 0.00 0.05 0.05 80 1014.5
20260505101603 61 69 4.0 7.0 0.00 0.05 0.05 79 1014.4
20260505101203 61 78 4.0 7.0 0.00 0.05 0.05 78 1014.5
20260505100803 62 86 3.0 6.0 0.01 0.05 0.05 77 1014.7
20260505100403 62 78 3.0 4.0 0.01 0.05 0.05 78 1014.7
20260505095603 61 87 1.0 3.0 0.01 0.05 0.05 79 1014.7
20260505095203 61 68 1.0 3.0 0.02 0.05 0.05 79 1015.0
20260505094803 61 65 1.0 4.0 0.03 0.05 0.05 81 1014.9
20260505094614 61 60 2.0 4.0 0.03 0.05 0.05 81 1014.7
20260505094003 61 44 2.0 4.0 0.04 0.05 0.05 82 1014.7
20260505093603 61 30 2.0 4.0 0.04 0.05 0.05 82 1014.4
20260505093203 60 35 2.0 4.0 0.05 0.05 0.05 82 1014.5
20260505093017 60 38 2.0 4.0 0.05 0.05 0.05 81 1014.5
20260505092403 60 40 1.0 2.0 0.05 0.05 0.05 81 1014.5
20260505092003 61 52 1.0 3.0 0.05 0.05 0.05 82 1014.6
20260505091603 61 56 2.0 3.0 0.05 0.05 0.05 82 1014.4
20260505091414 61 60 1.0 3.0 0.05 0.05 0.05 81 1014.6
20260505090803 61 68 0.0 2.0 0.04 0.04 0.04 78 1014.5
20260505090403 61 0 0.0 0.0 0.04 0.04 0.04 79 1014.5
20260505090217 61 0 0.0 0.0 0.04 0.04 0.04 78 1014.6
20260505085603 61 0 0.0 0.0 0.04 0.04 0.04 77 1014.7
20260505085203 61 0 0.0 0.0 0.03 0.03 0.03 77 1014.4
20260505084803 61 0 0.0 0.0 0.02 0.02 0.02 78 1014.5
20260505084403 61 0 0.0 0.0 0.02 0.02 0.02 77 1014.6
20260505084003 61 0 0.0 0.0 0.01 0.01 0.01 74 1014.6
20260505083603 62 0 0.0 0.0 0.01 0.01 0.01 76 1014.5
20260505083203 62 0 0.0 0.0 0.00 0.00 0.00 75 1014.6
20260505083012 62 0 0.0 0.0 0.00 0.00 0.00 74 1014.5
20260505082403 62 0 0.0 0.0 0.00 0.00 0.00 76 1014.5
20260505082003 62 0 0.0 0.0 0.00 0.00 0.00 77 1014.5
20260505081603 62 0 0.0 0.0 0.00 0.00 0.00 76 1014.3
20260505081203 62 0 0.0 0.0 0.00 0.00 0.00 76 1014.5
20260505080803 62 0 0.0 0.0 0.00 0.00 0.00 77 1014.3
20260505080403 62 0 0.0 0.0 0.00 0.00 0.00 77 1014.4
20260505080003 62 0 0.0 0.0 0.00 0.00 0.00 77 1014.4
20260505075603 62 0 0.0 0.0 0.00 0.00 0.00 77 1014.4
20260505075417 62 0 0.0 0.0 0.00 0.00 0.00 78 1014.4
20260505074803 62 0 0.0 0.0 0.00 0.00 0.00 78 1014.5
20260505074403 61 0 0.0 0.0 0.00 0.00 0.00 78 1014.4
20260505074003 61 0 0.0 0.0 0.00 0.00 0.00 77 1014.6
20260505073603 61 0 0.0 0.0 0.00 0.00 0.00 78 1014.4
20260505073203 61 0 0.0 0.0 0.00 0.00 0.00 77 1014.5
20260505072803 61 0 0.0 0.0 0.00 0.00 0.00 76 1014.3
20260505072403 61 128 0.0 1.0 0.00 0.00 0.00 77 1014.2
20260505072003 61 128 0.0 1.0 0.00 0.00 0.00 76 1014.3
20260505071603 61 128 0.0 2.0 0.00 0.00 0.00 76 1014.4
20260505071415 61 128 0.0 2.0 0.00 0.00 0.00 77 1014.3
20260505070803 61 128 1.0 2.0 0.00 0.00 0.00 77 1014.4
20260505070403 60 128 1.0 2.0 0.00 0.00 0.00 77 1014.3
20260505070004 60 126 0.0 2.0 0.00 0.00 0.00 77 1014.3
20260505065603 60 121 0.0 2.0 0.00 0.00 0.00 76 1014.2
20260505065203 60 87 0.0 2.0 0.00 0.00 0.00 78 1014.1
20260505064803 60 83 1.0 2.0 0.00 0.00 0.00 78 1014.1
20260505064403 60 89 1.0 2.0 0.00 0.00 0.00 78 1014.0
20260505064003 60 94 1.0 2.0 0.00 0.00 0.00 79 1013.9
20260505063603 60 96 0.0 2.0 0.00 0.00 0.00 79 1014.1
20260505063203 60 0 0.0 0.0 0.00 0.00 0.00 80 1013.9
20260505062803 60 157 1.0 2.0 0.00 0.00 0.00 79 1014.0
20260505062403 60 156 1.0 2.0 0.00 0.00 0.00 80 1014.0
20260505062003 59 155 0.0 2.0 0.00 0.00 0.00 81 1013.9
20260505061603 59 0 0.0 0.0 0.00 0.00 0.00 82 1013.9
20260505061203 59 107 0.0 2.0 0.00 0.00 0.00 83 1013.9
20260505061015 59 107 0.0 2.0 0.00 0.00 0.00 83 1013.9
20260505060403 60 96 1.0 2.0 0.00 0.00 0.00 85 1013.9
20260505060003 59 99 1.0 2.0 0.00 0.00 0.00 87 1013.8
20260505055603 59 95 2.0 2.0 0.00 0.00 0.00 88 1013.9
20260505055203 60 80 2.0 3.0 0.00 0.00 0.00 89 1013.7
20260505054803 60 63 1.0 3.0 0.00 0.00 0.00 89 1013.8
20260505054403 60 47 1.0 2.0 0.00 0.00 0.00 90 1013.6
20260505054003 60 0 0.0 0.0 0.00 0.00 0.00 90 1013.5
20260505053815 59 0 0.0 0.0 0.00 0.00 0.00 90 1013.6
20260505053203 59 32 1.0 2.0 0.00 0.00 0.00 90 1013.5
20260505052803 59 26 1.0 2.0 0.00 0.00 0.00 90 1013.6
20260505052403 59 13 1.0 2.0 0.00 0.00 0.00 91 1013.4
20260505052003 59 6 1.0 4.0 0.00 0.00 0.00 91 1013.1
20260505051603 59 6 2.0 4.0 0.00 0.00 0.00 91 1013.4
20260505051203 59 15 2.0 4.0 0.00 0.00 0.00 92 1013.2
20260505050803 59 31 2.0 3.0 0.00 0.00 0.00 92 1013.3
20260505050403 59 43 1.0 3.0 0.00 0.00 0.00 92 1013.4
20260505050215 59 44 1.0 3.0 0.00 0.00 0.00 92 1013.5
20260505041603 59 38 2.0 4.0 0.00 0.00 0.00 92 1013.4
20260505041203 59 39 2.0 4.0 0.00 0.00 0.00 92 1013.3
20260505040803 59 38 2.0 4.0 0.00 0.00 0.00 92 1013.4
20260505040403 59 36 2.0 2.0 0.00 0.00 0.00 91 1013.4
20260505040004 59 34 2.0 4.0 0.00 0.00 0.00 91 1013.3
20260505035603 59 30 2.0 4.0 0.00 0.00 0.00 91 1013.3
20260505035414 59 28 2.0 4.0 0.00 0.00 0.00 91 1013.3
20260505034803 59 25 2.0 2.0 0.00 0.00 0.00 91 1013.2
20260505034403 59 24 1.0 3.0 0.00 0.00 0.00 91 1013.3
20260505034003 59 23 1.0 3.0 0.00 0.00 0.00 91 1013.4
20260505033603 59 18 1.0 3.0 0.00 0.00 0.00 91 1013.2
20260505033203 59 17 1.0 3.0 0.00 0.00 0.00 91 1013.2
20260505033015 59 18 1.0 3.0 0.00 0.00 0.00 91 1013.2
20260505032403 58 12 1.0 2.0 0.00 0.00 0.00 90 1013.1
20260505032003 59 9 1.0 2.0 0.00 0.00 0.00 89 1013.2
20260505031603 58 3 1.0 2.0 0.00 0.00 0.00 89 1013.4
20260505031203 58 2 0.0 1.0 0.00 0.00 0.00 88 1013.2
20260505030803 58 2 0.0 2.0 0.00 0.00 0.00 88 1013.4
20260505030617 59 2 0.0 2.0 0.00 0.00 0.00 88 1013.5
20260505030004 58 2 0.0 1.0 0.00 0.00 0.00 88 1013.4
20260505025603 58 0 0.0 0.0 0.00 0.00 0.00 88 1013.4
20260505025203 58 0 0.0 0.0 0.00 0.00 0.00 87 1013.5
20260505024803 58 0 0.0 0.0 0.00 0.00 0.00 87 1013.6
20260505024403 58 0 0.0 0.0 0.00 0.00 0.00 86 1013.5
20260505024003 58 0 0.0 0.0 0.00 0.00 0.00 86 1013.5
20260505023603 58 0 0.0 0.0 0.00 0.00 0.00 85 1013.5
20260505023203 58 0 0.0 0.0 0.00 0.00 0.00 84 1013.3
20260505022803 58 0 0.0 0.0 0.00 0.00 0.00 84 1013.4
20260505022403 58 1 0.0 0.0 0.00 0.00 0.00 83 1013.5
20260505022215 58 1 0.0 2.0 0.00 0.00 0.00 83 1013.8
20260505021603 58 1 0.0 2.0 0.00 0.00 0.00 82 1013.7
20260505021414 58 1 0.0 2.0 0.00 0.00 0.00 82 1013.7
20260505020803 58 0 0.0 0.0 0.00 0.00 0.00 81 1013.9
20260505020403 58 0 0.0 0.0 0.00 0.00 0.00 82 1013.8
20260505020004 57 0 0.0 0.0 0.00 0.00 0.00 81 1014.0
20260505015603 57 2 0.0 1.0 0.00 0.00 0.00 81 1013.9
20260505015203 57 1 0.0 1.0 0.00 0.00 0.00 81 1014.1
20260505014803 57 1 0.0 1.0 0.00 0.00 0.00 81 1013.8
20260505014403 57 1 1.0 2.0 0.00 0.00 0.00 81 1013.7
20260505014003 57 359 2.0 3.0 0.00 0.00 0.00 80 1013.9
20260505013603 57 358 1.0 3.0 0.00 0.00 0.00 80 1013.9
20260505013203 57 358 0.0 3.0 0.00 0.00 0.00 80 1013.9
20260505012803 57 4 0.0 1.0 0.00 0.00 0.00 80 1014.1
20260505012403 57 4 0.0 1.0 0.00 0.00 0.00 80 1014.2
20260505012003 58 3 1.0 1.0 0.00 0.00 0.00 79 1014.0
20260505011603 57 4 1.0 2.0 0.00 0.00 0.00 80 1014.2
20260505011203 57 6 1.0 2.0 0.00 0.00 0.00 80 1014.2
20260505010803 57 8 1.0 2.0 0.00 0.00 0.00 80 1014.2
20260505010403 57 8 1.0 1.0 0.00 0.00 0.00 80 1014.2
20260505010003 57 3 0.0 2.0 0.00 0.00 0.00 79 1014.2
20260505005817 58 3 0.0 2.0 0.00 0.00 0.00 79 1014.2
20260505005203 57 0 0.0 0.0 0.00 0.00 0.00 80 1014.4
20260505004803 57 1 0.0 2.0 0.00 0.00 0.00 80 1014.4
20260505004403 57 19 1.0 2.0 0.00 0.00 0.00 80 1014.5
20260505004003 57 23 1.0 2.0 0.00 0.00 0.00 81 1014.5
20260505003603 57 0 0.0 0.0 0.00 0.00 0.00 79 1014.6
20260505003203 57 0 0.0 0.0 0.00 0.00 0.00 78 1014.6
20260505002803 57 0 0.0 0.0 0.00 0.00 0.00 78 1014.7
20260505002403 57 0 0.0 0.0 0.00 0.00 0.00 78 1014.8
20260505002003 57 0 0.0 0.0 0.00 0.00 0.00 78 1015.0
20260505001603 57 98 0.0 1.0 0.00 0.00 0.00 78 1014.9
20260505001203 57 98 0.0 1.0 0.00 0.00 0.00 77 1015.1
20260505000803 57 98 0.0 1.0 0.00 0.00 0.00 78 1015.0
20260505000405 57 0 0.0 0.0 0.00 0.00 0.00 78 1015.1
20260505000003 57 0 0.0 0.0 0.00 0.00 0.00 77 1015.1
20260504235603 58 101 0.0 2.0 0.00 0.00 0.00 76 1015.1
20260504235203 58 103 1.0 3.0 0.00 0.00 0.00 75 1015.1
20260504234803 58 101 1.0 3.0 0.00 0.00 0.00 74 1015.0
20260504234615 58 100 1.0 3.0 0.00 0.00 0.00 75 1015.1
20260504234003 59 98 2.0 4.0 0.00 0.00 0.00 73 1015.3
20260504233603 59 100 3.0 4.0 0.00 0.00 0.00 73 1015.2
20260504233203 58 99 3.0 4.0 0.00 0.00 0.00 73 1015.2
20260504232803 59 98 2.0 4.0 0.00 0.00 0.00 73 1015.3
20260504232403 58 99 2.0 4.0 0.00 0.00 0.00 74 1015.3
20260504232217 58 98 2.0 3.0 0.00 0.00 0.00 75 1015.4
20260504231603 58 95 1.0 2.0 0.00 0.00 0.00 75 1015.4
20260504231203 58 53 1.0 2.0 0.00 0.00 0.00 75 1015.5
20260504230803 58 34 1.0 2.0 0.00 0.00 0.00 75 1015.5
20260504230614 58 29 1.0 2.0 0.00 0.00 0.00 76 1015.7
20260504230003 57 19 1.0 2.0 0.00 0.00 0.00 77 1015.6
20260504225603 57 19 1.0 2.0 0.00 0.00 0.00 77 1015.5
20260504225412 57 19 1.0 2.0 0.00 0.00 0.00 77 1015.6
20260504224803 58 18 1.0 2.0 0.00 0.00 0.00 76 1015.6
20260504224616 58 18 1.0 2.0 0.00 0.00 0.00 75 1015.6
20260504224003 58 0 0.0 0.0 0.00 0.00 0.00 75 1015.6
20260504223603 58 0 0.0 0.0 0.00 0.00 0.00 75 1015.6
20260504223203 58 0 0.0 0.0 0.00 0.00 0.00 75 1015.6
20260504222803 58 0 0.0 0.0 0.00 0.00 0.00 74 1015.7
20260504222403 58 334 0.0 2.0 0.00 0.00 0.00 75 1015.8
20260504222003 58 355 1.0 3.0 0.00 0.00 0.00 75 1015.9
20260504221603 58 357 2.0 4.0 0.00 0.00 0.00 75 1015.7
20260504221204 58 358 2.0 4.0 0.00 0.00 0.00 75 1015.8
20260504221016 58 357 2.0 4.0 0.00 0.00 0.00 75 1015.9
20260504220403 59 2 0.0 2.0 0.00 0.00 0.00 73 1015.8
20260504220004 60 143 0.0 1.0 0.00 0.00 0.00 72 1015.7
20260504215603 60 150 1.0 2.0 0.00 0.00 0.00 71 1015.6
20260504215203 60 155 1.0 2.0 0.00 0.00 0.00 70 1015.6
20260504214803 60 162 1.0 2.0 0.00 0.00 0.00 70 1015.8
20260504214403 61 166 2.0 2.0 0.00 0.00 0.00 70 1015.7
20260504214003 61 171 2.0 2.0 0.00 0.00 0.00 69 1015.7
20260504213816 61 173 2.0 2.0 0.00 0.00 0.00 69 1015.9
20260504213203 61 186 2.0 3.0 0.00 0.00 0.00 68 1015.6
20260504212803 62 194 2.0 4.0 0.00 0.00 0.00 68 1015.8
20260504212403 62 198 3.0 4.0 0.00 0.00 0.00 67 1015.8
20260504212003 62 203 3.0 4.0 0.00 0.00 0.00 67 1015.8
20260504211603 62 201 2.0 4.0 0.00 0.00 0.00 68 1016.1
20260504211203 62 186 2.0 3.0 0.00 0.00 0.00 68 1015.9
20260504210803 62 167 1.0 2.0 0.00 0.00 0.00 68 1015.9
20260504210403 62 144 0.0 1.0 0.00 0.00 0.00 69 1016.0
20260504210004 62 144 0.0 2.0 0.00 0.00 0.00 68 1016.0
20260504205814 62 144 1.0 2.0 0.00 0.00 0.00 69 1016.1
20260504205414 62 144 1.0 2.0 0.00 0.00 0.00 68 1015.9
20260504204803 62 143 0.0 2.0 0.00 0.00 0.00 68 1016.0
20260504204617 62 143 0.0 2.0 0.00 0.00 0.00 68 1015.8
20260504204003 62 0 0.0 0.0 0.00 0.00 0.00 68 1015.8
20260504203816 62 0 0.0 0.0 0.00 0.00 0.00 67 1016.0
20260504203203 62 0 0.0 0.0 0.00 0.00 0.00 67 1015.9
20260504202803 62 0 0.0 0.0 0.00 0.00 0.00 67 1016.0
20260504202403 62 0 0.0 0.0 0.00 0.00 0.00 67 1015.8
20260504202003 63 143 0.0 1.0 0.00 0.00 0.00 66 1015.9
20260504201603 62 143 0.0 1.0 0.00 0.00 0.00 66 1015.9
20260504201203 63 143 1.0 1.0 0.00 0.00 0.00 66 1015.9
20260504200803 63 143 1.0 2.0 0.00 0.00 0.00 66 1015.8
20260504200403 63 145 1.0 2.0 0.00 0.00 0.00 65 1015.8
20260504200003 64 150 2.0 4.0 0.00 0.00 0.00 64 1015.9
20260504195603 64 159 2.0 4.0 0.00 0.00 0.00 63 1015.9
20260504195203 64 176 3.0 4.0 0.00 0.00 0.00 63 1015.8
20260504195014 64 187 2.0 4.0 0.00 0.00 0.00 63 1015.8
20260504194403 64 205 2.0 3.0 0.00 0.00 0.00 63 1015.6
20260504194003 64 187 2.0 3.0 0.00 0.00 0.00 63 1015.8
20260504193817 64 176 2.0 4.0 0.00 0.00 0.00 63 1015.9
20260504193203 65 159 3.0 4.0 0.00 0.00 0.00 61 1015.8
20260504193016 65 160 3.0 5.0 0.00 0.00 0.00 61 1015.6
20260504192615 65 166 4.0 6.0 0.00 0.00 0.00 60 1015.9
20260504192003 66 176 5.0 8.0 0.00 0.00 0.00 59 1015.8
20260504191603 66 178 5.0 8.0 0.00 0.00 0.00 59 1015.6
20260504191203 66 182 5.0 10.0 0.00 0.00 0.00 59 1015.7
20260504190803 66 182 5.0 10.0 0.00 0.00 0.00 59 1015.6
20260504190403 66 181 5.0 10.0 0.00 0.00 0.00 58 1015.5
20260504190003 66 172 5.0 7.0 0.00 0.00 0.00 58 1015.6
20260504185603 67 167 6.0 10.0 0.00 0.00 0.00 57 1015.6
20260504185203 67 165 7.0 10.0 0.00 0.00 0.00 56 1015.6
20260504184803 67 162 7.0 9.0 0.00 0.00 0.00 55 1015.6
20260504184614 67 162 7.0 11.0 0.00 0.00 0.00 55 1015.6
20260504184003 67 164 7.0 11.0 0.00 0.00 0.00 53 1015.4
20260504183812 67 165 7.0 11.0 0.00 0.00 0.00 53 1015.4
20260504183203 68 165 7.0 9.0 0.00 0.00 0.00 52 1015.5
20260504182803 68 162 7.0 9.0 0.00 0.00 0.00 52 1015.2
20260504182403 68 162 7.0 11.0 0.00 0.00 0.00 51 1015.4
20260504182215 69 161 7.0 11.0 0.00 0.00 0.00 51 1015.4
20260504181603 69 160 7.0 11.0 0.00 0.00 0.00 49 1015.5
20260504181203 69 160 7.0 11.0 0.00 0.00 0.00 48 1015.5
20260504180803 70 162 7.0 11.0 0.00 0.00 0.00 48 1015.5
20260504180618 70 162 7.0 11.0 0.00 0.00 0.00 48 1015.3
20260504180217 70 161 7.0 11.0 0.00 0.00 0.00 48 1015.5
20260504175816 71 163 8.0 14.0 0.00 0.00 0.00 48 1015.5
20260504175203 72 164 8.0 14.0 0.00 0.00 0.00 47 1015.4
20260504175015 72 160 7.0 14.0 0.00 0.00 0.00 47 1015.1
20260504174403 72 155 5.0 13.0 0.00 0.00 0.00 47 1015.3
20260504174003 72 161 5.0 9.0 0.00 0.00 0.00 48 1015.1
20260504173813 72 159 5.0 9.0 0.00 0.00 0.00 48 1015.3